Location: Gwatt
(46.7204°N, 7.6223°E)
Time: 16:52:34
(UTC+00:00)

deb Explorer IX - Pass Details

Date: 24 January 2021
Orbit: 537 x 1102 km, 38.8° (Epoch: 04 March)

Event Time Altitude Azimuth Distance (km) Brightness Sun altitude
Rises 21:40:20 0° 266° (W) 3,265 - -52.8°
Reaches altitude 10° 21:43:44 10° 247° (WSW) 2,211 - -53.2°
Maximum altitude 21:46:57 17° 208° (SSW) 1,683 - -53.7°
Drops below altitude 10° 21:49:55 10° 168° (SSE) 1,999 - -54.0°
Sets 21:52:47 0° 147° (SSE) 2,818 - -54.4°
